GW2301 Weather Reports


time (UTC)temp
C
wind
direction
speed
KPH
gust
KPH
rain 1hr
cm
rain 24hr
cm
rain mn
cm
humidity
%
barometer
mb
20260906114630 21 50 1.6 4.8 0.00 0.00 0.00 91 1014.1
20260906114026 21 41 1.6 3.2 0.00 0.00 0.00 91 1013.8
20260906113542 21 33 0.0 4.8 0.00 0.00 0.00 91 1013.8
20260906113130 21 60 0.0 8.0 0.00 0.00 0.00 91 1013.6
20260906112546 21 97 3.2 8.0 0.00 0.00 0.00 91 1013.7
20260906112042 21 58 3.2 4.8 0.00 0.00 0.00 91 1013.6
20260906111628 21 40 1.6 6.4 0.00 0.00 0.00 91 1013.6
20260906111038 22 16 1.6 6.4 0.00 0.00 0.00 92 1013.3
20260906110524 22 37 1.6 4.8 0.00 0.00 0.00 92 1013.5
20260906110156 22 70 1.6 4.8 0.00 0.00 0.00 92 1013.2
20260906105524 22 55 1.6 4.8 0.00 0.00 0.00 92 1013.3
20260906105042 22 43 1.6 3.2 0.00 0.00 0.00 92 1013.1
20260906104636 22 34 0.0 3.2 0.00 0.00 0.00 92 1013.0
20260906104038 22 34 0.0 3.2 0.00 0.00 0.00 92 1013.0
20260906103527 22 51 1.6 4.8 0.00 0.00 0.00 92 1012.8
20260906103051 22 93 1.6 4.8 0.00 0.00 0.00 92 1012.6
20260906102531 22 59 0.0 4.8 0.00 0.00 0.00 92 1012.8
20260906102020 22 36 1.6 3.2 0.00 0.00 0.00 92 1012.8
20260906101625 22 36 1.6 3.2 0.00 0.00 0.00 92 1012.8
20260906101024 22 321 0.0 1.6 0.00 0.00 0.00 92 1012.5
20260906100532 22 321 0.0 1.6 0.00 0.00 0.00 92 1012.8
20260906100119 22 321 0.0 3.2 0.00 0.00 0.00 92 1012.6
20260906095531 22 321 0.0 3.2 0.00 0.00 0.00 92 1012.5
20260906095034 22 17 0.0 1.6 0.00 0.00 0.00 92 1012.6
20260906094645 22 17 0.0 0.0 0.00 0.00 0.00 92 1012.4
20260906094021 22 17 0.0 1.6 0.00 0.00 0.00 92 1012.5
20260906093524 22 17 0.0 1.6 0.00 0.00 0.00 92 1012.2
20260906093104 22 17 0.0 3.2 0.00 0.00 0.00 92 1012.2
20260906092516 22 17 0.0 3.2 0.00 0.00 0.00 92 1012.3
20260906092021 22 32 0.0 4.8 0.00 0.00 0.00 92 1012.4
20260906091632 22 24 1.6 4.8 0.00 0.00 0.00 92 1012.5
20260906091028 22 101 0.0 4.8 0.00 0.00 0.00 92 1012.7
20260906090537 22 46 1.6 4.8 0.00 0.00 0.00 92 1012.6
20260906090133 22 86 3.2 4.8 0.00 0.00 0.00 92 1012.6
20260906085528 22 34 1.6 4.8 0.00 0.00 0.00 92 1012.6
20260906085023 22 52 1.6 4.8 0.00 0.00 0.00 92 1012.4
20260906084628 22 39 0.0 3.2 0.00 0.00 0.00 92 1012.7
20260906084034 22 39 0.0 3.2 0.00 0.00 0.00 92 1012.5
20260906083518 22 39 0.0 3.2 0.00 0.00 0.00 92 1012.5
20260906083136 22 45 1.6 4.8 0.00 0.00 0.00 92 1012.5
20260906082527 23 31 0.0 4.8 0.00 0.00 0.00 92 1012.5
20260906082031 23 16 0.0 3.2 0.00 0.00 0.00 92 1012.7
20260906081625 22 115 0.0 1.6 0.00 0.00 0.00 92 1012.6
20260906081023 22 115 0.0 1.6 0.00 0.00 0.00 92 1012.6
20260906080543 22 115 0.0 0.0 0.00 0.00 0.00 92 1012.7
20260906080124 22 115 0.0 0.0 0.00 0.00 0.00 92 1012.5
20260906075530 22 115 0.0 1.6 0.00 0.00 0.00 92 1012.5
20260906075028 22 115 0.0 1.6 0.00 0.00 0.00 92 1012.4
20260906074634 22 115 0.0 1.6 0.00 0.00 0.00 92 1012.5
20260906074033 22 115 0.0 1.6 0.00 0.00 0.00 92 1012.4
20260906073540 22 115 0.0 1.6 0.00 0.00 0.00 92 1012.4
20260906073055 22 115 0.0 0.0 0.00 0.00 0.00 92 1012.4
20260906072518 22 115 0.0 1.6 0.00 0.00 0.00 92 1012.5
20260906072039 22 115 0.0 1.6 0.00 0.00 0.00 92 1012.4
20260906071630 22 115 0.0 1.6 0.00 0.00 0.00 92 1012.4
20260906071028 22 115 0.0 1.6 0.00 0.00 0.00 92 1012.4
20260906070523 22 115 0.0 0.0 0.00 0.00 0.00 92 1012.2
20260906070137 22 115 0.0 0.0 0.00 0.00 0.00 92 1012.3
20260906065538 22 115 0.0 0.0 0.00 0.00 0.00 92 1012.2
20260906065039 22 115 0.0 0.0 0.00 0.00 0.00 92 1012.3
20260906064632 23 115 0.0 0.0 0.00 0.00 0.00 92 1012.3
20260906064033 23 115 0.0 0.0 0.00 0.00 0.00 92 1012.4
20260906063526 23 115 0.0 0.0 0.00 0.00 0.00 92 1012.5
20260906063050 23 115 0.0 0.0 0.00 0.00 0.00 92 1012.4
20260906062538 23 115 0.0 0.0 0.00 0.00 0.00 92 1012.7
20260906062030 23 115 0.0 0.0 0.00 0.00 0.00 92 1012.7
20260906061639 23 115 0.0 0.0 0.00 0.00 0.00 92 1012.7
20260906061024 23 115 0.0 0.0 0.00 0.00 0.00 92 1012.8
20260906060547 23 115 0.0 0.0 0.00 0.00 0.00 92 1012.9
20260906060148 23 115 0.0 0.0 0.00 0.00 0.00 91 1012.9
20260906055548 23 115 0.0 0.0 0.00 0.00 0.00 91 1012.6
20260906055021 23 115 0.0 0.0 0.00 0.00 0.00 91 1012.9
20260906054652 23 115 0.0 0.0 0.00 0.00 0.00 91 1012.8
20260906054042 23 115 0.0 0.0 0.00 0.00 0.00 91 1012.7
20260906053547 23 115 0.0 0.0 0.00 0.00 0.00 91 1012.7
20260906053119 23 92 0.0 0.0 0.00 0.00 0.00 91 1012.7
20260906052534 23 92 0.0 0.0 0.00 0.00 0.00 91 1012.5
20260906052027 23 92 0.0 0.0 0.00 0.00 0.00 91 1012.6
20260906051634 23 92 0.0 0.0 0.00 0.00 0.00 91 1012.6
20260906051042 23 129 0.0 0.0 0.00 0.00 0.00 91 1012.9
20260906050528 23 129 0.0 0.0 0.00 0.00 0.00 91 1012.9
20260906050201 23 65 0.0 0.0 0.00 0.00 0.00 91 1012.8
20260906045534 23 65 0.0 1.6 0.00 0.00 0.00 91 1012.7
20260906045036 23 65 0.0 1.6 0.00 0.00 0.00 91 1012.5
20260906044650 23 65 0.0 0.0 0.00 0.00 0.00 91 1012.5
20260906044035 23 65 0.0 0.0 0.00 0.00 0.00 91 1012.5
20260906043523 23 65 0.0 0.0 0.00 0.00 0.00 90 1012.2
20260906043130 23 65 0.0 0.0 0.00 0.00 0.00 90 1012.1
20260906042526 23 65 0.0 1.6 0.00 0.00 0.00 90 1012.2
20260906042030 23 65 0.0 3.2 0.00 0.00 0.00 90 1012.2
20260906041625 23 65 0.0 3.2 0.00 0.00 0.00 90 1012.1
20260906041032 23 150 0.0 1.6 0.00 0.00 0.00 90 1012.2
20260906040526 23 150 0.0 1.6 0.00 0.00 0.00 90 1012.3
20260906040143 23 150 0.0 1.6 0.00 0.00 0.00 90 1012.2
20260906035533 23 150 0.0 3.2 0.00 0.00 0.00 90 1012.3
20260906035044 23 150 0.0 3.2 0.00 0.00 0.00 90 1012.3
20260906034624 23 150 0.0 1.6 0.00 0.00 0.00 90 1012.3
20260906034023 23 150 0.0 1.6 0.00 0.00 0.00 90 1012.4
20260906033523 23 150 0.0 1.6 0.00 0.00 0.00 90 1012.4
20260906033105 23 150 0.0 3.2 0.00 0.00 0.00 90 1012.4
20260906032537 23 148 0.0 3.2 0.00 0.00 0.00 90 1012.3
20260906032038 23 127 0.0 1.6 0.00 0.00 0.00 90 1012.3
20260906031629 23 173 0.0 1.6 0.00 0.00 0.00 90 1012.4
20260906031024 24 173 0.0 1.6 0.00 0.00 0.00 90 1012.4
20260906030543 24 173 0.0 1.6 0.00 0.00 0.00 90 1012.6
20260906030132 24 173 0.0 1.6 0.00 0.00 0.00 90 1012.6
20260906025524 24 173 0.0 0.0 0.00 0.00 0.00 89 1012.6
20260906025030 24 173 0.0 1.6 0.00 0.00 0.00 89 1012.7
20260906024636 24 173 0.0 1.6 0.00 0.00 0.00 89 1012.8
20260906024034 24 173 0.0 1.6 0.00 0.00 0.00 89 1012.8
20260906023533 24 173 0.0 1.6 0.00 0.00 0.00 89 1012.5
20260906023105 24 173 0.0 1.6 0.00 0.00 0.00 89 1012.7
20260906022532 24 173 0.0 1.6 0.00 0.00 0.00 89 1012.8
20260906022019 24 173 0.0 1.6 0.00 0.00 0.00 88 1012.8
20260906021631 24 173 0.0 3.2 0.00 0.00 0.00 88 1012.7
20260906021028 24 173 0.0 3.2 0.00 0.00 0.00 88 1012.7
20260906020542 24 173 0.0 1.6 0.00 0.00 0.00 88 1012.6
20260906020139 24 173 0.0 1.6 0.00 0.00 0.00 88 1012.5
20260906015523 24 173 0.0 3.2 0.00 0.00 0.00 87 1012.6
20260906015044 24 173 1.6 3.2 0.00 0.00 0.00 87 1012.6
20260906014618 24 173 1.6 3.2 0.00 0.00 0.00 87 1012.6
20260906014042 24 173 1.6 3.2 0.00 0.00 0.00 87 1012.5
20260906013533 24 173 0.0 1.6 0.00 0.00 0.00 87 1012.5
20260906013122 25 173 0.0 1.6 0.00 0.00 0.00 86 1012.3
20260906012527 25 173 0.0 1.6 0.00 0.00 0.00 85 1012.2
20260906012040 25 173 0.0 3.2 0.00 0.00 0.00 85 1012.2
20260906011643 25 173 0.0 3.2 0.00 0.00 0.00 85 1012.0
20260906011034 25 173 0.0 3.2 0.00 0.00 0.00 85 1011.8
20260906010523 25 173 0.0 4.8 0.00 0.00 0.00 85 1011.9
20260906010141 25 173 1.6 4.8 0.00 0.00 0.00 85 1012.0
20260906005547 25 109 0.0 3.2 0.00 0.00 0.00 85 1011.7
20260906005024 25 109 0.0 0.0 0.00 0.00 0.00 84 1012.0
20260906004619 25 109 0.0 1.6 0.00 0.00 0.00 84 1011.9
20260906004027 26 109 0.0 1.6 0.00 0.00 0.00 84 1011.9
20260906003545 26 109 0.0 1.6 0.00 0.00 0.00 83 1011.7
20260906003132 26 109 0.0 1.6 0.00 0.00 0.00 83 1011.6
20260906002524 26 109 0.0 1.6 0.00 0.00 0.00 83 1011.8
20260906002037 26 109 0.0 0.0 0.00 0.00 0.00 83 1011.7
20260906001609 26 109 0.0 1.6 0.00 0.00 0.00 83 1011.9
20260906001029 26 109 0.0 1.6 0.00 0.00 0.00 82 1011.8
20260906000523 26 109 0.0 1.6 0.00 0.00 0.00 82 1011.9
20260906000131 26 78 0.0 1.6 0.00 0.00 0.00 82 1012.0
20260905235527 26 190 0.0 1.6 0.00 0.00 0.00 82 1012.0
20260905235023 26 190 0.0 1.6 0.00 0.00 0.00 81 1012.0
20260905234627 27 190 0.0 1.6 0.00 0.00 0.00 80 1012.0
20260905234033 27 190 0.0 1.6 0.00 0.00 0.00 80 1012.0
20260905233538 27 190 0.0 0.0 0.00 0.00 0.00 79 1012.2
20260905233129 27 190 0.0 1.6 0.00 0.00 0.00 79 1012.2
20260905232529 27 190 0.0 1.6 0.00 0.00 0.00 78 1012.0
20260905232024 27 190 0.0 3.2 0.00 0.00 0.00 77 1012.1
20260905231622 27 190 0.0 1.6 0.00 0.00 0.00 77 1012.1
20260905231040 27 190 0.0 1.6 0.00 0.00 0.00 76 1012.1
20260905230541 27 190 0.0 3.2 0.00 0.00 0.00 75 1011.8
20260905230134 27 190 0.0 3.2 0.00 0.00 0.00 74 1012.0
20260905225530 28 100 0.0 3.2 0.00 0.00 0.00 74 1012.0
20260905225022 28 21 0.0 1.6 0.00 0.00 0.00 73 1012.0
20260905224632 28 21 0.0 1.6 0.00 0.00 0.00 72 1012.0
20260905224034 28 21 0.0 3.2 0.00 0.00 0.00 73 1011.9
20260905223548 28 21 0.0 3.2 0.00 0.00 0.00 73 1012.0
20260905223128 28 21 0.0 3.2 0.00 0.00 0.00 73 1011.9
20260905222533 28 21 0.0 3.2 0.00 0.00 0.00 72 1011.8
20260905222025 28 21 0.0 3.2 0.00 0.00 0.00 72 1011.8
20260905221631 28 21 0.0 1.6 0.00 0.00 0.00 71 1011.7
20260905221021 28 21 0.0 0.0 0.00 0.00 0.00 71 1011.8
20260905220537 28 21 0.0 1.6 0.00 0.00 0.00 70 1011.9
20260905220133 28 21 0.0 6.4 0.00 0.00 0.00 70 1011.8
20260905215524 28 15 1.6 6.4 0.00 0.00 0.00 69 1011.9
20260905215028 29 242 0.0 3.2 0.00 0.00 0.00 68 1012.1
20260905214635 29 301 0.0 1.6 0.00 0.00 0.00 68 1012.1
20260905214037 29 325 0.0 3.2 0.00 0.00 0.00 67 1011.9
20260905213526 29 328 0.0 3.2 0.00 0.00 0.00 66 1011.8
20260905213137 29 17 0.0 12.9 0.00 0.00 0.00 64 1011.6
20260905212530 30 30 3.2 12.9 0.00 0.00 0.00 63 1011.7
20260905212039 30 46 3.2 6.4 0.00 0.00 0.00 62 1011.8
20260905211633 30 121 3.2 9.7 0.00 0.00 0.00 62 1011.8
20260905211019 30 44 3.2 12.9 0.00 0.00 0.00 61 1011.9
20260905210530 30 68 3.2 12.9 0.00 0.00 0.00 60 1011.8
20260905210140 30 190 3.2 9.7 0.00 0.00 0.00 61 1011.8
20260905205533 30 55 1.6 9.7 0.00 0.69 0.00 62 1011.8
20260905205041 30 75 1.6 9.7 0.00 0.69 0.00 62 1011.6
20260905204622 30 37 3.2 9.7 0.00 0.69 0.00 62 1011.8
20260905204023 30 50 3.2 9.7 0.00 0.69 0.00 61 1011.7
20260905203536 30 20 1.6 9.7 0.00 0.69 0.00 61 1011.7
20260905203137 30 245 1.6 14.5 0.00 0.69 0.00 62 1011.8
20260905202535 30 31 6.4 14.5 0.00 0.69 0.00 60 1011.7
20260905202036 31 28 6.4 14.5 0.00 0.69 0.00 59 1011.6
20260905201632 31 44 3.2 9.7 0.00 0.69 0.00 59 1011.5
20260905201024 31 68 3.2 8.0 0.00 0.69 0.00 56 1011.7
20260905200535 32 10 1.6 9.7 0.00 0.69 0.00 55 1011.9
20260905200125 32 167 3.2 9.7 0.00 0.69 0.00 53 1012.0
20260905195523 32 184 3.2 9.7 0.00 0.74 0.00 52 1011.9
20260905195023 32 331 1.6 9.7 0.00 0.74 0.00 52 1012.1
20260905194632 32 42 3.2 8.0 0.00 0.74 0.00 51 1012.3
20260905194041 32 9 1.6 8.0 0.00 0.74 0.00 53 1012.1
20260905193517 32 291 0.0 6.4 0.00 0.74 0.00 52 1012.2
20260905193147 32 319 1.6 9.7 0.00 0.74 0.00 51 1012.0
20260905192525 32 67 1.6 14.5 0.00 0.74 0.00 50 1012.1
20260905192041 32 217 1.6 14.5 0.00 0.74 0.00 51 1012.2
20260905191629 32 76 1.6 6.4 0.00 0.74 0.00 51 1012.3
20260905191026 32 22 1.6 6.4 0.00 0.74 0.00 51 1012.5
20260905190531 32 23 1.6 4.8 0.00 0.74 0.00 50 1012.5
20260905190151 31 70 1.6 8.0 0.00 0.74 0.00 52 1012.5
20260905185520 31 121 4.8 9.7 0.00 0.74 0.00 51 1012.7
20260905185042 31 59 4.8 9.7 0.00 0.74 0.00 52 1012.7
20260905184635 32 82 1.6 8.0 0.00 0.74 0.00 50 1012.8
20260905184023 31 68 1.6 8.0 0.00 0.74 0.00 50 1013.0
20260905183522 31 111 3.2 8.0 0.00 0.74 0.00 52 1013.0
20260905183129 31 43 1.6 8.0 0.00 0.74 0.00 51 1013.3
20260905182542 31 93 3.2 9.7 0.00 0.74 0.00 53 1013.0
20260905182019 31 221 1.6 8.0 0.00 0.74 0.00 51 1013.1
20260905181631 31 74 4.8 8.0 0.00 0.74 0.00 50 1013.2
20260905181023 32 78 3.2 6.4 0.00 0.74 0.00 50 1013.0
20260905180539 32 134 0.0 4.8 0.00 0.74 0.00 51 1013.0
20260905180146 31 165 0.0 8.0 0.00 0.74 0.00 53 1013.3
20260905175532 31 200 1.6 8.0 0.00 0.74 0.00 54 1013.1
20260905175040 30 54 1.6 6.4 0.00 0.74 0.00 57 1013.3
20260905174631 30 88 1.6 8.0 0.00 0.74 0.00 56 1013.3
20260905174019 30 57 1.6 11.3 0.00 0.74 0.00 54 1013.3
20260905173540 30 73 4.8 11.3 0.00 0.74 0.00 55 1013.6
20260905173137 30 73 1.6 9.7 0.00 0.74 0.00 62 1013.5
20260905172520 30 214 3.2 8.0 0.00 0.74 0.00 62 1013.4
20260905172044 30 103 4.8 8.0 0.00 0.74 0.00 61 1013.6
20260905171558 31 136 1.6 6.4 0.00 0.74 0.00 63 1013.7
20260905171027 31 187 1.6 6.4 0.00 0.74 0.00 63 1013.5
20260905170527 31 85 3.2 6.4 0.00 0.74 0.00 62 1013.8
20260905170131 30 172 0.0 6.4 0.00 0.74 0.00 65 1013.7
20260905165538 30 96 1.6 6.4 0.00 0.74 0.00 65 1013.6
20260905165028 30 53 1.6 8.0 0.00 0.74 0.00 65 1013.7
20260905164641 30 286 1.6 8.0 0.00 0.74 0.00 66 1013.9
20260905164034 30 31 3.2 8.0 0.00 0.74 0.00 66 1013.7
20260905163523 30 225 4.8 8.0 0.00 0.74 0.00 66 1013.7
20260905163132 30 211 3.2 9.7 0.00 0.74 0.00 69 1013.7
20260905162544 29 196 3.2 11.3 0.00 0.74 0.00 71 1013.7
20260905162040 28 229 3.2 11.3 0.00 0.74 0.00 72 1013.6
20260905161648 28 282 4.8 14.5 0.00 0.74 0.00 73 1013.4
20260905161025 27 186 1.6 14.5 0.00 0.74 0.00 75 1013.4
20260905160540 27 196 3.2 12.9 0.00 0.74 0.00 78 1013.3
20260905160124 26 140 4.8 9.7 0.00 0.74 0.00 79 1013.6
20260905155544 26 229 4.8 9.7 0.00 0.74 0.00 79 1013.8
20260905155030 26 227 3.2 4.8 0.00 0.74 0.00 79 1013.9
20260905154621 25 174 0.0 4.8 0.00 0.74 0.00 80 1013.8
20260905154032 25 123 0.0 6.4 0.00 0.74 0.00 80 1013.4
20260905153540 25 67 1.6 6.4 0.00 0.74 0.00 80 1013.7
20260905153103 26 38 1.6 6.4 0.00 0.74 0.00 80 1013.7
20260905152525 26 200 1.6 4.8 0.00 0.74 0.00 79 1013.5
20260905152035 26 165 0.0 11.3 0.00 0.74 0.00 80 1013.6
20260905151634 26 174 4.8 12.9 0.00 0.74 0.00 80 1013.3
20260905151039 26 197 6.4 12.9 0.00 0.74 0.00 79 1013.4
20260905150535 26 190 4.8 11.3 0.00 0.74 0.00 79 1014.0
20260905150126 26 250 6.4 11.3 0.00 0.74 0.00 78 1014.1
20260905145530 26 188 4.8 9.7 0.00 0.74 0.00 78 1014.2
20260905145031 26 193 1.6 8.0 0.00 0.74 0.00 78 1014.4
20260905144600 25 262 3.2 6.4 0.00 0.74 0.00 78 1014.5
20260905144041 25 238 3.2 6.4 0.00 0.74 0.00 80 1014.7
20260905143529 25 164 0.0 3.2 0.00 0.74 0.00 81 1014.7
20260905143130 25 164 0.0 3.2 0.00 0.74 0.00 80 1014.8
20260905142534 25 153 0.0 4.8 0.00 0.74 0.00 81 1014.5
20260905142023 23 257 0.0 3.2 0.00 0.74 0.00 83 1014.7
20260905141635 24 257 0.0 4.8 0.00 0.74 0.00 81 1014.9
20260905141026 24 264 1.6 3.2 0.00 0.74 0.00 81 1014.6
20260905140520 23 86 0.0 3.2 0.00 0.74 0.00 82 1014.8
20260905140139 23 86 0.0 3.2 0.00 0.74 0.00 83 1015.0
20260905135535 24 86 0.0 6.4 0.00 0.74 0.00 82 1015.0
20260905135038 24 55 1.6 6.4 0.00 0.74 0.00 82 1015.3
20260905134637 24 113 0.0 6.4 0.00 0.74 0.00 82 1015.2
20260905134038 24 78 1.6 9.7 0.00 0.74 0.00 85 1015.2
20260905133542 24 80 1.6 9.7 0.00 0.74 0.00 87 1015.2
20260905133139 23 40 3.2 6.4 0.00 0.74 0.00 88 1015.1
20260905132517 23 35 1.6 6.4 0.00 0.74 0.00 89 1015.2
20260905132031 23 32 3.2 6.4 0.00 0.74 0.00 90 1015.6
20260905131631 23 47 1.6 6.4 0.00 0.74 0.00 90 1015.6
20260905131029 23 15 0.0 6.4 0.00 0.74 0.00 91 1015.4
20260905130518 23 75 1.6 4.8 0.00 0.74 0.00 92 1015.7
20260905130216 22 38 1.6 4.8 0.00 0.74 0.00 92 1015.5
20260905125528 22 26 0.0 4.8 0.00 0.74 0.00 93 1015.4
20260905125039 22 5 0.0 8.0 0.00 0.74 0.00 93 1015.6
20260905124642 22 59 0.0 4.8 0.00 0.74 0.00 93 1015.6
20260905124020 22 19 1.6 4.8 0.00 0.74 0.00 93 1015.1
20260905123523 22 352 0.0 6.4 0.00 0.74 0.00 93 1015.3
20260905123140 22 36 1.6 6.4 0.00 0.74 0.00 93 1015.1
20260905122530 22 28 1.6 6.4 0.00 0.74 0.00 93 1015.5
20260905122024 22 360 0.0 11.3 0.00 0.74 0.00 94 1015.6
20260905121624 22 34 3.2 11.3 0.00 0.74 0.00 94 1015.2
20260905121032 22 63 0.0 4.8 0.00 0.74 0.00 93 1015.2
20260905120524 22 97 0.0 4.8 0.00 0.74 0.00 94 1015.1
20260905120129 22 360 0.0 3.2 0.00 0.74 0.00 94 1015.3
20260905115527 22 206 0.0 1.6 0.00 0.74 0.00 94 1014.0
20260905115027 22 206 0.0 3.2 0.00 0.74 0.00 93 1013.8